Barquisimeto, Venezuela

10:24 PM -04 on October 18, 2017 (GMT -0400)
Barquisimeto

Weather History for SVBM - March, 2013

Change the Weather History Date:

Thursday, March 7, 2013

  Actual Average Record
Temperature  
Mean Temperature 80 °F -  
Max Temperature 92 °F 87 °F 93 °F (2001)
Min Temperature 69 °F 67 °F 60 °F (2002)
Cooling Degree Days 16    
Growing Degree Days 30 (Base 50)    
Moisture  
Dew Point 67 °F    
Average Humidity 65    
Maximum Humidity 94    
Minimum Humidity 40    
Precipitation  
Precipitation 0.00 in - - ()
Sea Level Pressure  
Sea Level Pressure 30.01 in    
Wind  
Wind Speed 7 mph ()    
Max Wind Speed 16 mph    
Max Gust Speed -    
Visibility 6.3 miles    
Events      
Averages and records for this station are not official NWS values.
T = Trace of Precipitation, MM = Missing Value Source: Averaged Metar Reports

Daily Weather History Graph

Daily Weather History Graph

Search for Another Location

Airport or City:

Trip Planner

Search our weather history database for the weather conditions in past years. The results will help you decide how hot, cold, wet, or windy it might be!

Date:

Astronomy

Mar. 07, 2013 Rise Set
Actual Time 6:18 AM -0430 6:18 PM -0430
Civil Twilight 5:57 AM -0430 6:39 PM -0430
Nautical Twilight 5:33 AM -0430 7:03 PM -0430
Astronomical Twilight 5:08 AM -0430 7:27 PM -0430
Moon 2:36 AM -0430 (3/7) 2:37 PM -0430 (3/7)
Length of Visible Light 12h 41m
Length of Day
11h 59m
Waning Crescent, 20% of the Moon is Illuminated
Mar 7
Waning Crescent
Mar 11
New
Mar 19
First Quarter
Mar 27
Full
Apr 3
Last Quarter

Hourly Weather History & Observations

Time (-0430) Temp. Heat Index Dew Point Humidity Pressure Visibility Wind Dir Wind Speed Gust Speed Precip Events Conditions
1:30 AM 71.6 °F - 68.0 °F 88% 30.06 in 6.2 mi ENE 6.9 mph - N/A   Mostly Cloudy
4:30 AM 69.8 °F - 68.0 °F 94% 30.04 in 6.2 mi NE 2.3 mph - N/A   Scattered Clouds
5:30 AM 69.8 °F - 68.0 °F 94% 30.06 in 6.2 mi ENE 3.5 mph - N/A   Scattered Clouds
6:30 AM 69.8 °F - 66.2 °F 88% 30.06 in 5.0 mi ESE 6.9 mph - N/A   Overcast
7:30 AM 71 °F - 69 °F 89% 29.99 in 5 mi East 4.6 mph - -   Mist
7:30 AM 69.8 °F - 68.0 °F 94% 30.06 in 5.0 mi East 9.2 mph - N/A   Mostly Cloudy
8:30 AM 73.4 °F - 69.8 °F 88% 30.09 in 6.2 mi ENE 10.4 mph - N/A   Scattered Clouds
9:30 AM 80.6 °F 83.9 °F 69.8 °F 70% 30.09 in 6.2 mi ESE 15.0 mph - N/A   Mostly Cloudy
10:30 AM 84.2 °F 88.4 °F 69.8 °F 62% 30.12 in 6.2 mi ESE 16.1 mph - N/A   Mostly Cloudy
11:30 AM 86.0 °F 89.4 °F 68.0 °F 55% 30.09 in 6.2 mi ESE 12.7 mph - N/A   Scattered Clouds
12:30 PM 89.6 °F 94.7 °F 69.8 °F 52% 30.06 in 6.2 mi SE 12.7 mph - N/A   Scattered Clouds
1:30 PM 90 °F - 69 °F 40% 29.90 in 12 mi SE 8.9 mph - -   Partly Cloudy
1:30 PM 89.6 °F 94.7 °F 69.8 °F 52% 30.01 in 6.2 mi SE 8.1 mph - N/A   Scattered Clouds
2:30 PM 93.2 °F 96.2 °F 66.2 °F 41% 29.98 in 6.2 mi ESE 9.2 mph - N/A   Partly Cloudy
3:30 PM 93.2 °F 96.2 °F 66.2 °F 41% 29.95 in 6.2 mi ESE 11.5 mph - N/A   Partly Cloudy
4:30 PM 91.4 °F 94.0 °F 66.2 °F 43% 29.92 in 6.2 mi SSE 9.2 mph - N/A   Partly Cloudy
5:30 PM 89.6 °F 92.2 °F 66.2 °F 46% 29.92 in 6.2 mi SSE 13.8 mph - N/A   Mostly Cloudy
6:30 PM 82.4 °F 84.6 °F 66.2 °F 58% 29.92 in 6.2 mi SE 11.5 mph - N/A   Mostly Cloudy
7:30 PM 83 °F - 64 °F 42% 29.85 in 6 mi SSE 8.9 mph - -   Scattered Clouds
7:30 PM 82.4 °F 83.9 °F 64.4 °F 54% 30.04 in 6.2 mi SSE 8.1 mph - N/A   Partly Cloudy
8:30 PM 78.8 °F - 64.4 °F 61% 29.98 in 6.2 mi ESE 4.6 mph - N/A   Partly Cloudy
9:30 PM 77.0 °F - 66.2 °F 69% 29.98 in 6.2 mi ESE 8.1 mph - N/A   Partly Cloudy
10:30 PM 75.2 °F - 68.0 °F 78% 30.01 in 6.2 mi ESE 6.9 mph - N/A   Partly Cloudy